Time,TemperatureF,DewpointF,PressureIn,WindDirection,WindDirectionDegrees,WindSpeedMPH,WindSpeedGustMPH,Humidity,HourlyPrecipIn,Conditions,Clouds,dailyrainin,SoftwareType,DateUTC
2013-05-30 00:04:00,53.1,46.1,29.90,SSE,158,0.4,0.4,77,0.00,,,0.00,WUHU216HW,2013-05-30 07:04:00,
2013-05-30 00:09:00,52.9,45.9,29.91,SSE,158,1.1,1.1,77,0.00,,,0.00,WUHU216HW,2013-05-30 07:09:00,
2013-05-30 00:14:00,52.7,45.7,29.91,South,180,1.1,1.1,77,0.00,,,0.00,WUHU216HW,2013-05-30 07:14:00,
2013-05-30 00:19:00,52.6,45.9,29.91,SE,135,0.0,1.1,78,0.00,,,0.00,WUHU216HW,2013-05-30 07:19:00,
2013-05-30 00:24:00,52.6,45.9,29.91,SE,135,0.2,0.7,78,0.00,,,0.00,WUHU216HW,2013-05-30 07:24:00,
2013-05-30 00:29:00,52.4,45.7,29.90,SE,135,0.0,0.7,78,0.00,,,0.00,WUHU216HW,2013-05-30 07:29:00,
2013-05-30 00:35:00,52.2,45.5,29.90,SSE,158,0.0,0.4,78,0.00,,,0.00,WUHU216HW,2013-05-30 07:35:00,
2013-05-30 00:40:00,52.2,45.5,29.90,SSE,158,0.0,0.4,78,0.00,,,0.00,WUHU216HW,2013-05-30 07:40:00,
2013-05-30 00:45:00,52.0,45.4,29.90,SE,135,0.0,0.4,78,0.00,,,0.00,WUHU216HW,2013-05-30 07:45:00,
2013-05-30 00:50:00,51.8,45.5,29.90,SE,135,0.0,0.4,79,0.00,,,0.00,WUHU216HW,2013-05-30 07:50:00,
2013-05-30 00:55:00,51.8,45.5,29.89,ESE,113,0.0,0.4,79,0.00,,,0.00,WUHU216HW,2013-05-30 07:55:00,
2013-05-30 01:00:00,51.8,45.5,29.89,ESE,113,0.0,0.4,79,0.00,,,0.00,WUHU216HW,2013-05-30 08:00:00,
2013-05-30 01:05:00,51.7,45.4,29.89,ESE,113,0.0,0.4,79,0.00,,,0.00,WUHU216HW,2013-05-30 08:05:00,
2013-05-30 01:10:00,51.7,45.4,29.89,ESE,113,0.4,0.4,79,0.00,,,0.00,WUHU216HW,2013-05-30 08:10:00,
2013-05-30 01:15:00,51.5,45.2,29.89,ESE,113,0.0,0.4,79,0.00,,,0.00,WUHU216HW,2013-05-30 08:15:00,
2013-05-30 01:20:00,51.5,45.5,29.89,ESE,113,0.0,0.2,80,0.00,,,0.00,WUHU216HW,2013-05-30 08:20:00,
2013-05-30 01:25:00,51.3,45.4,29.89,SE,135,0.2,0.2,80,0.00,,,0.00,WUHU216HW,2013-05-30 08:25:00,
2013-05-30 01:30:00,51.1,45.2,29.89,SE,135,0.0,0.4,80,0.00,,,0.00,WUHU216HW,2013-05-30 08:30:00,
2013-05-30 01:35:00,51.1,45.2,29.89,SE,135,0.0,0.4,80,0.00,,,0.00,WUHU216HW,2013-05-30 08:35:00,
2013-05-30 01:40:00,50.9,45.0,29.89,SE,135,0.0,0.0,80,0.00,,,0.00,WUHU216HW,2013-05-30 08:40:00,
2013-05-30 01:45:00,50.8,44.8,29.89,SE,135,0.0,0.0,80,0.00,,,0.00,WUHU216HW,2013-05-30 08:45:00,
2013-05-30 01:50:00,50.8,44.8,29.89,SE,135,0.0,0.2,80,0.00,,,0.00,WUHU216HW,2013-05-30 08:50:00,
2013-05-30 01:56:00,50.6,44.9,29.89,SE,135,0.4,0.4,81,0.00,,,0.00,WUHU216HW,2013-05-30 08:56:00,
2013-05-30 02:01:00,50.6,44.9,29.88,SE,135,0.7,0.7,81,0.00,,,0.00,WUHU216HW,2013-05-30 09:01:00,
2013-05-30 02:06:00,50.6,44.9,29.88,SE,135,0.0,0.7,81,0.00,,,0.00,WUHU216HW,2013-05-30 09:06:00,
2013-05-30 02:11:00,50.6,44.9,29.89,SE,135,0.0,0.4,81,0.00,,,0.00,WUHU216HW,2013-05-30 09:11:00,
2013-05-30 02:16:00,50.4,45.1,29.89,SE,135,0.4,0.4,82,0.00,,,0.00,WUHU216HW,2013-05-30 09:16:00,
2013-05-30 02:21:00,50.4,45.1,29.88,SE,135,0.0,0.4,82,0.00,,,0.00,WUHU216HW,2013-05-30 09:21:00,
2013-05-30 02:26:00,50.2,44.9,29.88,SE,135,0.0,0.0,82,0.00,,,0.00,WUHU216HW,2013-05-30 09:26:00,
2013-05-30 02:31:00,50.2,44.9,29.88,SE,135,0.0,0.0,82,0.00,,,0.00,WUHU216HW,2013-05-30 09:31:00,
2013-05-30 02:36:00,50.0,44.7,29.88,SE,135,0.0,0.0,82,0.00,,,0.00,WUHU216HW,2013-05-30 09:36:00,
2013-05-30 02:41:00,50.0,44.7,29.88,SE,135,0.0,0.0,82,0.00,,,0.00,WUHU216HW,2013-05-30 09:41:00,
2013-05-30 02:46:00,50.0,44.7,29.88,SE,135,0.0,0.0,82,0.00,,,0.00,WUHU216HW,2013-05-30 09:46:00,
2013-05-30 02:51:00,49.9,44.6,29.88,SE,135,0.0,0.0,82,0.00,,,0.00,WUHU216HW,2013-05-30 09:51:00,
2013-05-30 02:56:00,49.7,44.4,29.88,SE,135,0.0,0.0,82,0.00,,,0.00,WUHU216HW,2013-05-30 09:56:00,
2013-05-30 03:01:00,49.7,44.4,29.88,SE,135,0.0,0.0,82,0.00,,,0.00,WUHU216HW,2013-05-30 10:01:00,
2013-05-30 03:06:00,49.5,44.5,29.89,SE,135,0.0,0.0,83,0.00,,,0.00,WUHU216HW,2013-05-30 10:06:00,
2013-05-30 03:11:00,49.5,44.5,29.88,SE,135,0.0,0.0,83,0.00,,,0.00,WUHU216HW,2013-05-30 10:11:00,
2013-05-30 03:17:00,49.5,44.5,29.89,SE,135,0.0,0.0,83,0.00,,,0.00,WUHU216HW,2013-05-30 10:17:00,
2013-05-30 03:22:00,49.3,44.3,29.89,SE,135,0.0,0.0,83,0.00,,,0.00,WUHU216HW,2013-05-30 10:22:00,
2013-05-30 03:27:00,49.3,44.3,29.88,SE,135,0.0,0.0,83,0.00,,,0.00,WUHU216HW,2013-05-30 10:27:00,
2013-05-30 03:32:00,49.3,44.3,29.89,SE,135,0.0,0.0,83,0.00,,,0.00,WUHU216HW,2013-05-30 10:32:00,
2013-05-30 03:37:00,49.3,44.7,29.89,SE,135,0.0,0.0,84,0.00,,,0.00,WUHU216HW,2013-05-30 10:37:00,
2013-05-30 03:42:00,49.1,44.5,29.89,SE,135,0.0,0.0,84,0.00,,,0.00,WUHU216HW,2013-05-30 10:42:00,
2013-05-30 03:47:00,49.1,44.5,29.89,SE,135,0.0,0.0,84,0.00,,,0.00,WUHU216HW,2013-05-30 10:47:00,
2013-05-30 03:52:00,49.0,44.0,29.89,SE,135,0.0,0.0,83,0.00,,,0.00,WUHU216HW,2013-05-30 10:52:00,
2013-05-30 03:57:00,49.0,44.0,29.89,SE,135,0.0,0.0,83,0.00,,,0.00,WUHU216HW,2013-05-30 10:57:00,
2013-05-30 04:02:00,49.0,44.0,29.89,ESE,113,0.2,0.4,83,0.00,,,0.00,WUHU216HW,2013-05-30 11:02:00,
2013-05-30 04:07:00,49.3,44.3,29.89,ESE,113,0.0,0.4,83,0.00,,,0.00,WUHU216HW,2013-05-30 11:07:00,
2013-05-30 04:12:00,49.3,44.7,29.89,ESE,113,0.0,0.0,84,0.00,,,0.00,WUHU216HW,2013-05-30 11:12:00,
2013-05-30 04:17:00,49.3,44.7,29.89,ESE,113,0.0,0.0,84,0.00,,,0.00,WUHU216HW,2013-05-30 11:17:00,
2013-05-30 04:22:00,49.3,44.7,29.89,ESE,113,0.0,0.2,84,0.00,,,0.00,WUHU216HW,2013-05-30 11:22:00,
2013-05-30 04:27:00,49.3,44.7,29.89,ESE,113,0.0,0.2,84,0.00,,,0.00,WUHU216HW,2013-05-30 11:27:00,
2013-05-30 04:32:00,49.1,44.8,29.89,NW,315,0.0,0.0,85,0.00,,,0.00,WUHU216HW,2013-05-30 11:32:00,
2013-05-30 04:37:00,49.1,44.8,29.89,NW,315,0.0,0.2,85,0.00,,,0.00,WUHU216HW,2013-05-30 11:37:00,
2013-05-30 04:43:00,49.3,45.3,29.90,NNW,338,0.2,0.4,86,0.00,,,0.00,WUHU216HW,2013-05-30 11:43:00,
2013-05-30 04:48:00,49.3,44.9,29.90,North,0,0.0,0.4,85,0.00,,,0.00,WUHU216HW,2013-05-30 11:48:00,
2013-05-30 04:53:00,49.3,44.9,29.90,North,0,0.4,0.4,85,0.00,,,0.00,WUHU216HW,2013-05-30 11:53:00,
2013-05-30 04:58:00,49.5,45.1,29.90,NE,45,0.4,0.7,85,0.00,,,0.00,WUHU216HW,2013-05-30 11:58:00,
2013-05-30 05:03:00,49.3,44.9,29.90,NE,45,0.9,1.3,85,0.00,,,0.00,WUHU216HW,2013-05-30 12:03:00,
2013-05-30 05:08:00,49.3,44.9,29.90,ENE,68,1.1,2.0,85,0.00,,,0.00,WUHU216HW,2013-05-30 12:08:00,
2013-05-30 05:13:00,49.3,44.9,29.90,NNE,23,0.0,2.0,85,0.00,,,0.00,WUHU216HW,2013-05-30 12:13:00,
2013-05-30 05:18:00,49.3,44.9,29.90,NNE,23,0.4,0.9,85,0.00,,,0.00,WUHU216HW,2013-05-30 12:18:00,
2013-05-30 05:23:00,49.3,44.9,29.90,NE,45,0.0,1.1,85,0.00,,,0.00,WUHU216HW,2013-05-30 12:23:00,
2013-05-30 05:28:00,49.3,45.3,29.90,NE,45,0.0,1.8,86,0.00,,,0.00,WUHU216HW,2013-05-30 12:28:00,
2013-05-30 05:33:00,49.5,45.1,29.89,NE,45,0.2,1.8,85,0.00,,,0.00,WUHU216HW,2013-05-30 12:33:00,
2013-05-30 05:38:00,49.3,44.9,29.90,NE,45,0.0,1.3,85,0.00,,,0.00,WUHU216HW,2013-05-30 12:38:00,
2013-05-30 05:43:00,49.0,44.7,29.90,North,0,0.0,0.0,85,0.00,,,0.00,WUHU216HW,2013-05-30 12:43:00,
2013-05-30 05:48:00,48.8,44.5,29.90,North,0,0.0,0.0,85,0.00,,,0.00,WUHU216HW,2013-05-30 12:48:00,
2013-05-30 05:53:00,48.6,44.3,29.90,North,0,0.0,0.0,85,0.00,,,0.00,WUHU216HW,2013-05-30 12:53:00,
2013-05-30 05:58:00,48.4,44.1,29.90,North,0,0.0,0.2,85,0.00,,,0.00,WUHU216HW,2013-05-30 12:58:00,
2013-05-30 06:03:00,48.4,44.1,29.91,NNE,23,0.2,0.4,85,0.00,,,0.00,WUHU216HW,2013-05-30 13:03:00,
2013-05-30 06:09:00,48.2,43.9,29.91,SE,135,0.4,0.4,85,0.00,,,0.00,WUHU216HW,2013-05-30 13:09:00,
2013-05-30 06:14:00,48.2,43.9,29.91,SE,135,0.2,0.4,85,0.00,,,0.00,WUHU216HW,2013-05-30 13:14:00,
2013-05-30 06:19:00,48.1,43.7,29.91,SSE,158,0.2,0.4,85,0.00,,,0.00,WUHU216HW,2013-05-30 13:19:00,
2013-05-30 06:24:00,48.1,43.7,29.91,SE,135,0.0,0.2,85,0.00,,,0.00,WUHU216HW,2013-05-30 13:24:00,
2013-05-30 06:29:00,48.1,43.7,29.91,SE,135,0.0,0.2,85,0.00,,,0.00,WUHU216HW,2013-05-30 13:29:00,
2013-05-30 06:34:00,48.1,44.1,29.91,SE,135,0.0,0.4,86,0.00,,,0.00,WUHU216HW,2013-05-30 13:34:00,
2013-05-30 06:39:00,48.2,44.3,29.91,SE,135,0.0,0.4,86,0.00,,,0.00,WUHU216HW,2013-05-30 13:39:00,
2013-05-30 06:44:00,48.2,44.3,29.91,SE,135,0.0,0.4,86,0.00,,,0.00,WUHU216HW,2013-05-30 13:44:00,
2013-05-30 06:49:00,48.4,44.4,29.91,SE,135,0.0,0.4,86,0.00,,,0.00,WUHU216HW,2013-05-30 13:49:00,
2013-05-30 06:54:00,48.6,44.6,29.92,SE,135,0.0,0.4,86,0.00,,,0.00,WUHU216HW,2013-05-30 13:54:00,
2013-05-30 06:59:00,48.8,45.1,29.92,SE,135,0.0,0.4,87,0.00,,,0.00,WUHU216HW,2013-05-30 13:59:00,
2013-05-30 07:04:00,49.5,46.1,29.92,SE,135,0.0,0.2,88,0.00,,,0.00,WUHU216HW,2013-05-30 14:04:00,
2013-05-30 07:09:00,50.8,47.3,29.93,SE,135,0.0,0.2,88,0.00,,,0.00,WUHU216HW,2013-05-30 14:09:00,
2013-05-30 07:14:00,51.3,48.2,29.93,SE,135,0.0,0.0,89,0.00,,,0.00,WUHU216HW,2013-05-30 14:14:00,
2013-05-30 07:19:00,51.5,48.0,29.92,SE,135,0.0,0.0,88,0.00,,,0.00,WUHU216HW,2013-05-30 14:19:00,
2013-05-30 07:24:00,51.5,47.7,29.92,East,90,1.1,1.1,87,0.00,,,0.00,WUHU216HW,2013-05-30 14:24:00,
2013-05-30 07:30:00,51.5,47.7,29.92,NNW,338,0.2,1.1,87,0.00,,,0.00,WUHU216HW,2013-05-30 14:30:00,
2013-05-30 07:35:00,51.7,47.9,29.92,WNW,293,1.6,1.6,87,0.00,,,0.00,WUHU216HW,2013-05-30 14:35:00,
2013-05-30 07:40:00,52.0,47.9,29.92,NW,315,0.4,1.6,86,0.00,,,0.00,WUHU216HW,2013-05-30 14:40:00,
2013-05-30 07:45:00,52.4,48.2,29.92,WNW,293,0.0,1.6,86,0.00,,,0.00,WUHU216HW,2013-05-30 14:45:00,
2013-05-30 07:50:00,52.6,48.4,29.93,ENE,68,0.4,0.7,86,0.00,,,0.00,WUHU216HW,2013-05-30 14:50:00,
2013-05-30 07:55:00,52.9,48.8,29.93,NW,315,0.4,0.7,86,0.00,,,0.00,WUHU216HW,2013-05-30 14:55:00,
2013-05-30 08:00:00,53.1,48.4,29.93,NNW,338,0.0,1.3,84,0.00,,,0.00,WUHU216HW,2013-05-30 15:00:00,
2013-05-30 08:05:00,53.5,48.8,29.93,NW,315,0.0,1.3,84,0.00,,,0.00,WUHU216HW,2013-05-30 15:05:00,
2013-05-30 08:10:00,53.5,48.4,29.93,NNW,338,0.4,1.3,83,0.00,,,0.00,WUHU216HW,2013-05-30 15:10:00,
2013-05-30 08:15:00,53.6,48.3,29.93,NNW,338,0.0,1.1,82,0.00,,,0.00,WUHU216HW,2013-05-30 15:15:00,
2013-05-30 08:20:00,53.8,48.5,29.92,NNW,338,0.4,1.1,82,0.00,,,0.00,WUHU216HW,2013-05-30 15:20:00,
2013-05-30 08:25:00,54.0,48.3,29.93,NW,315,0.4,1.8,81,0.00,,,0.00,WUHU216HW,2013-05-30 15:25:00,
2013-05-30 08:30:00,54.4,48.3,29.93,NW,315,0.4,1.8,80,0.00,,,0.00,WUHU216HW,2013-05-30 15:30:00,
2013-05-30 08:35:00,54.5,48.5,29.93,NW,315,0.4,1.8,80,0.00,,,0.00,WUHU216HW,2013-05-30 15:35:00,
2013-05-30 08:40:00,54.7,48.0,29.93,NNW,338,0.2,0.9,78,0.00,,,0.00,WUHU216HW,2013-05-30 15:40:00,
2013-05-30 08:45:00,55.1,48.3,29.93,NNW,338,0.0,0.9,78,0.00,,,0.00,WUHU216HW,2013-05-30 15:45:00,
2013-05-30 08:50:00,55.4,49.0,29.93,ENE,68,1.1,1.1,79,0.00,,,0.00,WUHU216HW,2013-05-30 15:50:00,
2013-05-30 08:55:00,56.0,49.5,29.93,NW,315,1.1,1.1,79,0.00,,,0.00,WUHU216HW,2013-05-30 15:55:00,
2013-05-30 09:01:00,56.5,49.3,29.94,West,270,1.6,1.8,77,0.00,,,0.00,WUHU216HW,2013-05-30 16:01:00,
2013-05-30 09:06:00,56.5,49.0,29.94,NNW,338,0.0,1.8,76,0.00,,,0.00,WUHU216HW,2013-05-30 16:06:00,
2013-05-30 09:11:00,56.9,49.0,29.94,West,270,1.1,2.5,75,0.00,,,0.00,WUHU216HW,2013-05-30 16:11:00,
2013-05-30 09:16:00,57.4,49.9,29.94,West,270,0.7,2.5,76,0.00,,,0.00,WUHU216HW,2013-05-30 16:16:00,
2013-05-30 09:21:00,57.8,49.5,29.94,WSW,248,0.4,1.6,74,0.00,,,0.00,WUHU216HW,2013-05-30 16:21:00,
2013-05-30 09:26:00,58.0,49.3,29.94,NW,315,1.1,2.2,73,0.00,,,0.00,WUHU216HW,2013-05-30 16:26:00,
2013-05-30 09:31:00,58.3,50.0,29.94,ESE,113,0.7,2.2,74,0.00,,,0.00,WUHU216HW,2013-05-30 16:31:00,
2013-05-30 09:36:00,58.9,49.9,29.94,NNW,338,1.6,2.0,72,0.00,,,0.00,WUHU216HW,2013-05-30 16:36:00,
2013-05-30 09:41:00,59.2,50.2,29.94,SW,225,1.8,2.5,72,0.00,,,0.00,WUHU216HW,2013-05-30 16:41:00,
2013-05-30 09:46:00,59.8,50.0,29.94,NW,315,1.8,2.5,70,0.00,,,0.00,WUHU216HW,2013-05-30 16:46:00,
2013-05-30 09:51:00,59.9,49.8,29.94,NNW,338,1.6,2.0,69,0.00,,,0.00,WUHU216HW,2013-05-30 16:51:00,
2013-05-30 09:56:00,59.8,49.6,29.93,NW,315,1.1,2.0,69,0.00,,,0.00,WUHU216HW,2013-05-30 16:56:00,
2013-05-30 10:01:00,60.1,50.0,29.93,WSW,248,1.1,1.1,69,0.00,,,0.00,WUHU216HW,2013-05-30 17:01:00,
2013-05-30 10:06:00,60.7,48.9,29.94,NW,315,0.9,2.5,65,0.00,,,0.00,WUHU216HW,2013-05-30 17:06:00,
2013-05-30 10:11:00,61.0,49.6,29.94,WSW,248,3.6,3.6,66,0.00,,,0.00,WUHU216HW,2013-05-30 17:11:00,
2013-05-30 10:16:00,61.4,50.4,29.94,NE,45,1.8,3.6,67,0.00,,,0.00,WUHU216HW,2013-05-30 17:16:00,
2013-05-30 10:21:00,61.4,49.5,29.94,NNW,338,1.3,2.2,65,0.00,,,0.00,WUHU216HW,2013-05-30 17:21:00,
2013-05-30 10:26:00,61.2,50.2,29.94,WSW,248,1.3,3.8,67,0.00,,,0.00,WUHU216HW,2013-05-30 17:26:00,
2013-05-30 10:32:00,62.1,50.2,29.94,NW,315,1.8,3.8,65,0.00,,,0.00,WUHU216HW,2013-05-30 17:32:00,
2013-05-30 10:37:00,62.3,50.8,29.93,West,270,1.6,2.5,66,0.00,,,0.00,WUHU216HW,2013-05-30 17:37:00,
2013-05-30 10:42:00,62.3,50.0,29.93,North,0,0.9,2.5,64,0.00,,,0.00,WUHU216HW,2013-05-30 17:42:00,
2013-05-30 10:47:00,62.3,50.8,29.93,SW,225,2.9,2.9,66,0.00,,,0.00,WUHU216HW,2013-05-30 17:47:00,
2013-05-30 10:52:00,63.5,51.9,29.93,ESE,113,2.5,2.9,66,0.00,,,0.00,WUHU216HW,2013-05-30 17:52:00,
2013-05-30 10:57:00,63.9,51.5,29.93,WSW,248,1.6,3.6,64,0.00,,,0.00,WUHU216HW,2013-05-30 17:57:00,
2013-05-30 11:02:00,64.4,51.1,29.93,West,270,0.2,3.6,62,0.00,,,0.00,WUHU216HW,2013-05-30 18:02:00,
2013-05-30 11:07:00,64.6,51.3,29.93,NNW,338,1.1,2.5,62,0.00,,,0.00,WUHU216HW,2013-05-30 18:07:00,
2013-05-30 11:12:00,64.8,49.2,29.93,West,270,1.1,2.9,57,0.00,,,0.00,WUHU216HW,2013-05-30 18:12:00,
2013-05-30 11:17:00,65.2,50.0,29.93,SW,225,1.3,2.9,58,0.00,,,0.00,WUHU216HW,2013-05-30 18:17:00,
2013-05-30 11:22:00,65.7,49.5,29.93,West,270,1.8,1.8,56,0.00,,,0.00,WUHU216HW,2013-05-30 18:22:00,
2013-05-30 11:27:00,66.1,50.4,29.93,WNW,293,1.1,1.8,57,0.00,,,0.00,WUHU216HW,2013-05-30 18:27:00,
2013-05-30 11:32:00,66.4,50.2,29.93,WNW,293,0.4,2.5,56,0.00,,,0.00,WUHU216HW,2013-05-30 18:32:00,
2013-05-30 11:37:00,66.2,49.6,29.93,SW,225,2.7,2.7,55,0.00,,,0.00,WUHU216HW,2013-05-30 18:37:00,
2013-05-30 11:43:00,67.0,48.8,29.93,SW,225,1.8,3.1,52,0.00,,,0.00,WUHU216HW,2013-05-30 18:43:00,
2013-05-30 11:48:00,67.1,48.4,29.92,NNW,338,0.2,3.1,51,0.00,,,0.00,WUHU216HW,2013-05-30 18:48:00,
2013-05-30 11:53:00,67.1,50.4,29.93,ESE,113,0.9,2.2,55,0.00,,,0.00,WUHU216HW,2013-05-30 18:53:00,
2013-05-30 11:58:00,67.9,48.1,29.93,West,270,1.3,3.8,49,0.00,,,0.00,WUHU216HW,2013-05-30 18:58:00,
2013-05-30 12:03:00,68.0,48.2,29.93,NW,315,2.5,3.8,49,0.00,,,0.00,WUHU216HW,2013-05-30 19:03:00,
2013-05-30 12:08:00,67.9,47.4,29.93,SSW,203,2.5,2.9,48,0.00,,,0.00,WUHU216HW,2013-05-30 19:08:00,
2013-05-30 12:13:00,68.2,49.4,29.92,South,180,0.7,2.5,51,0.00,,,0.00,WUHU216HW,2013-05-30 19:13:00,
2013-05-30 12:18:00,69.1,49.8,29.92,SSW,203,2.5,2.5,50,0.00,,,0.00,WUHU216HW,2013-05-30 19:18:00,
2013-05-30 12:23:00,69.7,50.8,29.93,NNW,338,0.0,2.5,51,0.00,,,0.00,WUHU216HW,2013-05-30 19:23:00,
2013-05-30 12:28:00,69.8,50.4,29.92,SW,225,4.0,4.0,50,0.00,,,0.00,WUHU216HW,2013-05-30 19:28:00,
2013-05-30 12:33:00,70.6,48.7,29.92,NNW,338,1.1,4.0,46,0.00,,,0.00,WUHU216HW,2013-05-30 19:33:00,
2013-05-30 12:38:00,70.7,48.2,29.92,WSW,248,2.7,2.7,45,0.00,,,0.00,WUHU216HW,2013-05-30 19:38:00,
2013-05-30 12:43:00,70.9,48.4,29.92,SSE,158,1.1,2.7,45,0.00,,,0.00,WUHU216HW,2013-05-30 19:43:00,
2013-05-30 12:48:00,71.8,49.2,29.92,SW,225,0.7,3.4,45,0.00,,,0.00,WUHU216HW,2013-05-30 19:48:00,
2013-05-30 12:53:00,72.2,47.2,29.92,WNW,293,2.7,3.4,41,0.00,,,0.00,WUHU216HW,2013-05-30 19:53:00,
2013-05-30 12:58:00,72.2,48.3,29.92,NW,315,1.8,3.6,43,0.00,,,0.00,WUHU216HW,2013-05-30 19:58:00,
2013-05-30 13:03:00,71.8,47.4,29.92,NW,315,0.7,3.6,42,0.00,,,0.00,WUHU216HW,2013-05-30 20:03:00,
2013-05-30 13:09:00,71.6,47.3,29.92,WNW,293,2.5,2.7,42,0.00,,,0.00,WUHU216HW,2013-05-30 20:09:00,
2013-05-30 13:14:00,71.1,48.0,29.93,NW,315,1.3,2.7,44,0.00,,,0.00,WUHU216HW,2013-05-30 20:14:00,
2013-05-30 13:19:00,71.8,46.8,29.92,WNW,293,1.8,2.7,41,0.00,,,0.00,WUHU216HW,2013-05-30 20:19:00,
2013-05-30 13:24:00,71.8,47.4,29.92,NW,315,1.1,2.7,42,0.00,,,0.00,WUHU216HW,2013-05-30 20:24:00,
2013-05-30 13:29:00,72.0,44.9,29.92,NW,315,1.8,2.2,38,0.00,,,0.00,WUHU216HW,2013-05-30 20:29:00,
2013-05-30 13:34:00,72.0,44.9,29.92,North,0,1.8,2.2,38,0.00,,,0.00,WUHU216HW,2013-05-30 20:34:00,
2013-05-30 13:39:00,72.0,46.5,29.92,WNW,293,0.9,1.8,40,0.00,,,0.00,WUHU216HW,2013-05-30 20:39:00,
2013-05-30 13:44:00,71.6,46.1,29.91,WNW,293,1.1,2.5,40,0.00,,,0.00,WUHU216HW,2013-05-30 20:44:00,
2013-05-30 13:49:00,72.4,46.7,29.91,WNW,293,0.9,2.5,40,0.00,,,0.00,WUHU216HW,2013-05-30 20:49:00,
2013-05-30 13:54:00,73.1,45.1,29.91,WSW,248,1.8,2.5,37,0.00,,,0.00,WUHU216HW,2013-05-30 20:54:00,
2013-05-30 13:59:00,73.3,46.0,29.91,WSW,248,3.1,4.7,38,0.00,,,0.00,WUHU216HW,2013-05-30 20:59:00,
2013-05-30 14:04:00,74.0,47.4,29.91,SW,225,2.7,4.7,39,0.00,,,0.00,WUHU216HW,2013-05-30 21:04:00,
2013-05-30 14:10:00,74.5,47.9,29.91,WSW,248,1.6,4.3,39,0.00,,,0.00,WUHU216HW,2013-05-30 21:10:00,
2013-05-30 14:15:00,74.7,47.4,29.91,SSW,203,4.0,4.3,38,0.00,,,0.00,WUHU216HW,2013-05-30 21:15:00,
2013-05-30 14:20:00,74.2,48.3,29.91,South,180,3.4,4.0,40,0.00,,,0.00,WUHU216HW,2013-05-30 21:20:00,
2013-05-30 14:25:00,74.0,47.4,29.91,West,270,1.8,4.3,39,0.00,,,0.00,WUHU216HW,2013-05-30 21:25:00,
2013-05-30 14:30:00,73.8,48.1,29.91,SW,225,2.2,4.3,40,0.00,,,0.00,WUHU216HW,2013-05-30 21:30:00,
2013-05-30 14:35:00,74.2,48.3,29.91,West,270,1.3,4.0,40,0.00,,,0.00,WUHU216HW,2013-05-30 21:35:00,
2013-05-30 14:40:00,74.7,48.1,29.91,NNE,23,2.5,4.0,39,0.00,,,0.00,WUHU216HW,2013-05-30 21:40:00,
2013-05-30 14:45:00,74.3,48.5,29.91,NW,315,1.1,3.6,40,0.00,,,0.00,WUHU216HW,2013-05-30 21:45:00,
2013-05-30 14:50:00,73.6,47.1,29.91,WSW,248,3.1,3.4,39,0.00,,,0.00,WUHU216HW,2013-05-30 21:50:00,
2013-05-30 14:55:00,73.6,48.4,29.91,SSW,203,2.9,3.4,41,0.00,,,0.00,WUHU216HW,2013-05-30 21:55:00,
2013-05-30 15:00:00,74.2,48.3,29.91,WNW,293,2.5,3.4,40,0.00,,,0.00,WUHU216HW,2013-05-30 22:00:00,
2013-05-30 15:05:00,73.4,47.7,29.91,NW,315,1.8,3.6,40,0.00,,,0.00,WUHU216HW,2013-05-30 22:05:00,
2013-05-30 15:10:00,72.9,47.3,29.91,WNW,293,2.2,3.4,40,0.00,,,0.00,WUHU216HW,2013-05-30 22:10:00,
2013-05-30 15:15:00,72.9,47.3,29.91,NW,315,1.8,3.4,40,0.00,,,0.00,WUHU216HW,2013-05-30 22:15:00,
2013-05-30 15:21:00,73.1,48.0,29.91,West,270,2.0,3.1,41,0.00,,,0.00,WUHU216HW,2013-05-30 22:21:00,
2013-05-30 15:26:00,72.5,47.5,29.91,NNW,338,0.4,2.9,41,0.00,,,0.00,WUHU216HW,2013-05-30 22:26:00,
2013-05-30 15:31:00,72.2,47.8,29.91,NW,315,1.3,3.1,42,0.00,,,0.00,WUHU216HW,2013-05-30 22:31:00,
2013-05-30 15:36:00,72.4,47.4,29.91,WSW,248,2.9,5.6,41,0.00,,,0.00,WUHU216HW,2013-05-30 22:36:00,
2013-05-30 15:41:00,72.4,47.9,29.91,NW,315,1.8,5.6,42,0.00,,,0.00,WUHU216HW,2013-05-30 22:41:00,
2013-05-30 15:46:00,72.7,49.4,29.91,North,0,1.8,3.4,44,0.00,,,0.00,WUHU216HW,2013-05-30 22:46:00,
2013-05-30 15:51:00,72.4,49.2,29.91,NW,315,1.3,3.8,44,0.00,,,0.00,WUHU216HW,2013-05-30 22:51:00,
2013-05-30 15:56:00,72.7,49.4,29.91,NNW,338,1.8,3.8,44,0.00,,,0.00,WUHU216HW,2013-05-30 22:56:00,
2013-05-30 16:01:00,71.6,48.4,29.91,NW,315,1.1,3.4,44,0.00,,,0.00,WUHU216HW,2013-05-30 23:01:00,
2013-05-30 16:06:00,70.9,47.8,29.91,WNW,293,3.4,3.4,44,0.00,,,0.00,WUHU216HW,2013-05-30 23:06:00,
2013-05-30 16:11:00,71.5,48.9,29.90,North,0,1.3,3.4,45,0.00,,,0.00,WUHU216HW,2013-05-30 23:11:00,
2013-05-30 16:16:00,71.5,48.3,29.90,WNW,293,3.8,4.7,44,0.00,,,0.00,WUHU216HW,2013-05-30 23:16:00,
2013-05-30 16:21:00,73.4,48.3,29.90,NNW,338,1.8,5.4,41,0.00,,,0.00,WUHU216HW,2013-05-30 23:21:00,
2013-05-30 16:27:00,72.9,47.3,29.91,NW,315,2.2,5.4,40,0.00,,,0.00,WUHU216HW,2013-05-30 23:27:00,
2013-05-30 16:32:00,72.4,47.4,29.91,NW,315,1.1,3.6,41,0.00,,,0.00,WUHU216HW,2013-05-30 23:32:00,
2013-05-30 16:37:00,73.1,46.6,29.91,North,0,2.2,3.6,39,0.00,,,0.00,WUHU216HW,2013-05-30 23:37:00,
2013-05-30 16:42:00,72.2,47.2,29.91,NNW,338,4.5,4.5,41,0.00,,,0.00,WUHU216HW,2013-05-30 23:42:00,
2013-05-30 16:47:00,72.2,47.8,29.91,West,270,1.6,4.5,42,0.00,,,0.00,WUHU216HW,2013-05-30 23:47:00,
2013-05-30 16:52:00,73.4,48.3,29.91,NW,315,1.6,3.4,41,0.00,,,0.00,WUHU216HW,2013-05-30 23:52:00,
2013-05-30 16:57:00,75.2,49.3,29.91,WNW,293,4.0,4.0,40,0.00,,,0.00,WUHU216HW,2013-05-30 23:57:00,
2013-05-30 17:02:00,75.2,49.3,29.91,WSW,248,4.0,4.0,40,0.00,,,0.00,WUHU216HW,2013-05-31 00:02:00,
2013-05-30 17:07:00,74.7,48.9,29.91,WNW,293,3.1,4.0,40,0.00,,,0.00,WUHU216HW,2013-05-31 00:07:00,
2013-05-30 17:12:00,74.2,48.3,29.91,NNW,338,2.2,3.1,40,0.00,,,0.00,WUHU216HW,2013-05-31 00:12:00,
2013-05-30 17:17:00,74.9,49.6,29.91,NW,315,1.8,2.9,41,0.00,,,0.00,WUHU216HW,2013-05-31 00:17:00,
2013-05-30 17:22:00,72.9,48.4,29.91,NNW,338,1.6,2.9,42,0.00,,,0.00,WUHU216HW,2013-05-31 00:22:00,
2013-05-30 17:28:00,73.6,49.7,29.91,NW,315,1.3,2.9,43,0.00,,,0.00,WUHU216HW,2013-05-31 00:28:00,
2013-05-30 17:33:00,74.0,49.4,29.91,NNW,338,1.1,2.5,42,0.00,,,0.00,WUHU216HW,2013-05-31 00:33:00,
2013-05-30 17:38:00,72.2,50.1,29.91,NNW,338,2.0,2.7,46,0.00,,,0.00,WUHU216HW,2013-05-31 00:38:00,
2013-05-30 17:43:00,71.5,50.0,29.91,NW,315,1.1,2.9,47,0.00,,,0.00,WUHU216HW,2013-05-31 00:43:00,
2013-05-30 17:48:00,72.7,50.1,29.91,NNW,338,0.9,2.2,45,0.00,,,0.00,WUHU216HW,2013-05-31 00:48:00,
2013-05-30 17:53:00,74.5,50.5,29.91,NW,315,0.9,2.0,43,0.00,,,0.00,WUHU216HW,2013-05-31 00:53:00,
2013-05-30 17:58:00,77.0,51.6,29.91,WNW,293,0.9,2.0,41,0.00,,,0.00,WUHU216HW,2013-05-31 00:58:00,
2013-05-30 18:03:00,78.8,51.8,29.91,SW,225,1.8,4.7,39,0.00,,,0.00,WUHU216HW,2013-05-31 01:03:00,
2013-05-30 18:08:00,75.8,49.1,29.91,NW,315,2.5,4.7,39,0.00,,,0.00,WUHU216HW,2013-05-31 01:08:00,
2013-05-30 18:13:00,74.9,49.6,29.91,WSW,248,2.0,2.5,41,0.00,,,0.00,WUHU216HW,2013-05-31 01:13:00,
2013-05-30 18:18:00,74.2,49.0,29.91,WNW,293,2.0,3.6,41,0.00,,,0.00,WUHU216HW,2013-05-31 01:18:00,
2013-05-30 18:23:00,72.5,48.7,29.91,WSW,248,0.9,3.6,43,0.00,,,0.00,WUHU216HW,2013-05-31 01:23:00,
2013-05-30 18:28:00,73.6,49.7,29.91,WSW,248,1.3,2.7,43,0.00,,,0.00,WUHU216HW,2013-05-31 01:28:00,
2013-05-30 18:33:00,73.1,49.1,29.91,SW,225,2.5,2.7,43,0.00,,,0.00,WUHU216HW,2013-05-31 01:33:00,
2013-05-30 18:38:00,72.0,48.2,29.91,SW,225,2.2,3.4,43,0.00,,,0.00,WUHU216HW,2013-05-31 01:38:00,
2013-05-30 18:43:00,70.7,48.2,29.91,SW,225,3.4,4.9,45,0.00,,,0.00,WUHU216HW,2013-05-31 01:43:00,
2013-05-30 18:49:00,69.5,47.7,29.91,SW,225,2.9,5.4,46,0.00,,,0.00,WUHU216HW,2013-05-31 01:49:00,
2013-05-30 18:54:00,68.8,47.1,29.91,WSW,248,0.9,5.4,46,0.00,,,0.00,WUHU216HW,2013-05-31 01:54:00,
2013-05-30 18:59:00,68.2,47.2,29.91,WNW,293,1.1,3.4,47,0.00,,,0.00,WUHU216HW,2013-05-31 01:59:00,
2013-05-30 19:04:00,67.7,47.9,29.91,West,270,2.5,2.9,49,0.00,,,0.00,WUHU216HW,2013-05-31 02:04:00,
2013-05-30 19:09:00,66.8,47.6,29.91,West,270,0.4,2.5,50,0.00,,,0.00,WUHU216HW,2013-05-31 02:09:00,
2013-05-30 19:14:00,66.8,48.2,29.91,NNW,338,0.0,1.8,51,0.00,,,0.00,WUHU216HW,2013-05-31 02:14:00,
2013-05-30 19:19:00,66.1,47.4,29.91,WSW,248,0.7,1.1,51,0.00,,,0.00,WUHU216HW,2013-05-31 02:19:00,
2013-05-30 19:24:00,65.9,47.3,29.91,SW,225,0.4,1.6,51,0.00,,,0.00,WUHU216HW,2013-05-31 02:24:00,
2013-05-30 19:29:00,65.9,47.3,29.91,WNW,293,1.1,2.5,51,0.00,,,0.00,WUHU216HW,2013-05-31 02:29:00,
2013-05-30 19:34:00,65.3,47.3,29.91,NW,315,0.7,2.5,52,0.00,,,0.00,WUHU216HW,2013-05-31 02:34:00,
2013-05-30 19:39:00,65.0,46.9,29.91,WSW,248,0.9,1.6,52,0.00,,,0.00,WUHU216HW,2013-05-31 02:39:00,
2013-05-30 19:44:00,64.6,46.5,29.91,WSW,248,0.4,1.8,52,0.00,,,0.00,WUHU216HW,2013-05-31 02:44:00,
2013-05-30 19:49:00,64.4,46.8,29.91,WSW,248,0.4,2.5,53,0.00,,,0.00,WUHU216HW,2013-05-31 02:49:00,
2013-05-30 19:54:00,64.1,46.5,29.91,SSW,203,1.3,2.5,53,0.00,,,0.00,WUHU216HW,2013-05-31 02:54:00,
2013-05-30 19:59:00,64.1,46.5,29.91,SSW,203,0.7,1.3,53,0.00,,,0.00,WUHU216HW,2013-05-31 02:59:00,
2013-05-30 20:04:00,63.9,46.4,29.91,SSW,203,0.0,1.1,53,0.00,,,0.00,WUHU216HW,2013-05-31 03:04:00,
2013-05-30 20:10:00,63.9,46.4,29.91,SW,225,0.0,1.1,53,0.00,,,0.00,WUHU216HW,2013-05-31 03:10:00,
2013-05-30 20:15:00,63.5,46.5,29.91,SW,225,0.0,0.2,54,0.00,,,0.00,WUHU216HW,2013-05-31 03:15:00,
2013-05-30 20:20:00,63.0,46.0,29.91,SW,225,0.0,0.0,54,0.00,,,0.00,WUHU216HW,2013-05-31 03:20:00,
2013-05-30 20:25:00,62.6,46.2,29.91,SW,225,0.0,0.0,55,0.00,,,0.00,WUHU216HW,2013-05-31 03:25:00,
2013-05-30 20:30:00,62.1,46.2,29.91,SW,225,0.0,0.0,56,0.00,,,0.00,WUHU216HW,2013-05-31 03:30:00,
2013-05-30 20:35:00,61.6,46.2,29.91,SW,225,0.0,0.0,57,0.00,,,0.00,WUHU216HW,2013-05-31 03:35:00,
2013-05-30 20:40:00,60.8,46.5,29.91,WSW,248,0.7,0.7,59,0.00,,,0.00,WUHU216HW,2013-05-31 03:40:00,
2013-05-30 20:45:00,60.5,46.6,29.91,West,270,0.4,0.7,60,0.00,,,0.00,WUHU216HW,2013-05-31 03:45:00,
2013-05-30 20:50:00,60.1,46.7,29.91,WSW,248,0.9,0.9,61,0.00,,,0.00,WUHU216HW,2013-05-31 03:50:00,
2013-05-30 20:55:00,59.8,45.9,29.91,WSW,248,0.4,0.9,60,0.00,,,0.00,WUHU216HW,2013-05-31 03:55:00,
2013-05-30 21:00:00,59.8,45.9,29.91,WSW,248,0.0,0.4,60,0.00,,,0.00,WUHU216HW,2013-05-31 04:00:00,
2013-05-30 21:01:00,59.8,45.9,29.91,WSW,248,0.0,0.4,60,0.00,,,0.00,WUHU216HW,2013-05-31 04:01:00,
2013-05-30 21:06:00,59.6,45.7,29.91,WSW,248,0.2,0.9,60,0.00,,,0.00,WUHU216HW,2013-05-31 04:06:00,
2013-05-30 21:11:00,59.4,46.0,29.91,WSW,248,0.0,0.9,61,0.00,,,0.00,WUHU216HW,2013-05-31 04:11:00,
2013-05-30 21:16:00,59.2,46.2,29.91,SW,225,0.0,0.9,62,0.00,,,0.00,WUHU216HW,2013-05-31 04:16:00,
2013-05-30 21:21:00,58.9,45.5,29.91,SW,225,0.0,0.9,61,0.00,,,0.00,WUHU216HW,2013-05-31 04:21:00,
2013-05-30 21:26:00,58.7,45.7,29.91,SW,225,0.0,0.9,62,0.00,,,0.00,WUHU216HW,2013-05-31 04:26:00,
2013-05-30 21:32:00,58.5,45.6,29.91,SW,225,0.0,0.4,62,0.00,,,0.00,WUHU216HW,2013-05-31 04:32:00,
2013-05-30 21:37:00,58.3,45.4,29.91,SW,225,0.0,0.4,62,0.00,,,0.00,WUHU216HW,2013-05-31 04:37:00,
2013-05-30 21:42:00,58.1,45.6,29.92,SW,225,0.0,0.0,63,0.00,,,0.00,WUHU216HW,2013-05-31 04:42:00,
2013-05-30 21:47:00,58.0,45.5,29.92,WSW,248,0.0,0.4,63,0.00,,,0.00,WUHU216HW,2013-05-31 04:47:00,
2013-05-30 21:52:00,57.8,45.3,29.92,WSW,248,0.0,0.0,63,0.00,,,0.00,WUHU216HW,2013-05-31 04:52:00,
2013-05-30 21:57:00,57.6,45.5,29.92,WSW,248,0.0,0.0,64,0.00,,,0.00,WUHU216HW,2013-05-31 04:57:00,
2013-05-30 22:02:00,57.4,45.3,29.92,WSW,248,0.0,0.0,64,0.00,,,0.00,WUHU216HW,2013-05-31 05:02:00,
2013-05-30 22:07:00,57.2,45.2,29.92,WSW,248,0.0,0.0,64,0.00,,,0.00,WUHU216HW,2013-05-31 05:07:00,
2013-05-30 22:12:00,57.1,45.4,29.92,WSW,248,0.0,0.0,65,0.00,,,0.00,WUHU216HW,2013-05-31 05:12:00,
2013-05-30 22:17:00,56.9,45.2,29.92,WSW,248,0.0,0.0,65,0.00,,,0.00,WUHU216HW,2013-05-31 05:17:00,
2013-05-30 22:22:00,56.7,45.5,29.93,WSW,248,0.0,0.0,66,0.00,,,0.00,WUHU216HW,2013-05-31 05:22:00,
2013-05-30 22:27:00,56.5,46.1,29.93,West,270,0.0,0.2,68,0.00,,,0.00,WUHU216HW,2013-05-31 05:27:00,
2013-05-30 22:32:00,56.2,47.3,29.93,WNW,293,0.7,0.7,72,0.00,,,0.00,WUHU216HW,2013-05-31 05:32:00,
2013-05-30 22:37:00,56.0,47.1,29.93,WNW,293,0.0,0.7,72,0.00,,,0.00,WUHU216HW,2013-05-31 05:37:00,
2013-05-30 22:42:00,56.0,46.7,29.93,NW,315,0.0,0.7,71,0.00,,,0.00,WUHU216HW,2013-05-31 05:42:00,
2013-05-30 22:48:00,56.0,47.4,29.93,NW,315,0.0,0.2,73,0.00,,,0.00,WUHU216HW,2013-05-31 05:48:00,
2013-05-30 22:53:00,55.8,47.3,29.93,WNW,293,0.0,0.2,73,0.00,,,0.00,WUHU216HW,2013-05-31 05:53:00,
2013-05-30 22:58:00,55.8,48.0,29.93,WNW,293,0.0,0.2,75,0.00,,,0.00,WUHU216HW,2013-05-31 05:58:00,
2013-05-30 23:03:00,55.6,47.4,29.93,NW,315,0.0,0.7,74,0.00,,,0.00,WUHU216HW,2013-05-31 06:03:00,
2013-05-30 23:08:00,55.6,47.1,29.93,NW,315,0.0,0.7,73,0.00,,,0.00,WUHU216HW,2013-05-31 06:08:00,
2013-05-30 23:13:00,55.4,47.3,29.93,NW,315,0.2,0.7,74,0.00,,,0.00,WUHU216HW,2013-05-31 06:13:00,
2013-05-30 23:18:00,55.4,47.3,29.94,NW,315,0.0,0.7,74,0.00,,,0.00,WUHU216HW,2013-05-31 06:18:00,
2013-05-30 23:23:00,55.4,46.9,29.93,NNW,338,0.0,0.4,73,0.00,,,0.00,WUHU216HW,2013-05-31 06:23:00,
2013-05-30 23:28:00,55.3,47.1,29.93,NNW,338,0.0,0.4,74,0.00,,,0.00,WUHU216HW,2013-05-31 06:28:00,
2013-05-30 23:33:00,55.3,46.7,29.93,NNW,338,0.0,0.2,73,0.00,,,0.00,WUHU216HW,2013-05-31 06:33:00,
2013-05-30 23:38:00,55.1,46.6,29.93,NNW,338,0.0,0.2,73,0.00,,,0.00,WUHU216HW,2013-05-31 06:38:00,
2013-05-30 23:43:00,55.1,46.6,29.93,North,0,0.4,0.4,73,0.00,,,0.00,WUHU216HW,2013-05-31 06:43:00,
2013-05-30 23:48:00,55.1,46.6,29.93,North,0,0.0,0.4,73,0.00,,,0.00,WUHU216HW,2013-05-31 06:48:00,
2013-05-30 23:53:00,54.9,46.5,29.93,NW,315,0.2,0.4,73,0.00,,,0.00,WUHU216HW,2013-05-31 06:53:00,
2013-05-30 23:58:00,54.9,46.5,29.93,NW,315,0.0,0.2,73,0.00,,,0.00,WUHU216HW,2013-05-31 06:58:00,